Regional Weather Roundup
Issued by NWS

Home | Current Version | Previous Version | Text Only | Print | Product List | Glossary Off
Versions: 1 2 3 4 5 6 7 8 9 10 11 12 13 14 15 16 17 18 19 20 21 22 23 24 25 26 27 28 29 30 31 32 33 34 35 36 37 38 39 40 41 42 43 44 45 46 47 48 49 50

000
ASUS43 KDMX 012007
RWRIA

WEATHER ROUNDUP FOR IOWA
NATIONAL WEATHER SERVICE DES MOINES IA
300 PM CDT MON SEP 01 2014

NOTE: "FAIR" INDICATES FEW OR NO CLOUDS BELOW 12,000 FEET WITH NO
SIGNIFICANT WEATHER AND/OR OBSTRUCTIONS TO VISIBILITY.

* - THESE STATIONS ARE NOT NWS STATIONS...THUS NOT UNDER NWS
QUALITY CONTROL.  THEY ALSO DO NOT REPORT WEATHER SUCH
AS PRECIPITATION OR FOG.

IAZ001>003-012>014-020>022-031>034-043>046-012100-
   NORTHWEST IOWA

CITY           SKY/WX    TMP DP  RH WIND       PRES   REMARKS
CARROLL *      MOSUNNY   77  61  57 NW9       29.85S
CHEROKEE *     MOSUNNY   75  64  69 W8        29.85S
DENISON *      MOSUNNY   75  61  60 W8        29.85S
LE MARS *      PTSUNNY   79  64  61 VRB7      29.86S HX  81
ORANGE CITY *  SUNNY     79  61  53 W10G18    29.86S HX  80
SHELDON *      PTSUNNY   75  63  64 NW7G14    29.84S
SIOUX CITY     PTSUNNY   77  62  59 N5        29.86S
SPENCER        MOSUNNY   78  60  53 W14       29.84S
STORM LAKE *   MOSUNNY   75  70  83 W10       29.86S
$$

IAZ055>058-069>071-079>083-090>094-012100-
   SOUTHWEST IOWA

CITY           SKY/WX    TMP DP  RH WIND       PRES   REMARKS
ATLANTIC *     MOSUNNY   77  63  61 NW12      29.86S
AUDUBON *      SUNNY     81  64  57 NW6       29.87S HX  82
CLARINDA *     SUNNY     77  64  65 W8        29.89F
COUNCIL BLFS * SUNNY     77  64  65 W8        29.87S
CRESTON *      SUNNY     77  64  65 W12G20    29.87S
HARLAN  *      MOSUNNY   75  63  64 NW12      29.91R
LAMONI         MOSUNNY   77  65  66 W16       29.87R
RED OAK *      MOSUNNY   77  64  65 NW7G14    29.88R
SHENANDOAH *   MOSUNNY   77  66  69 W8        29.88F
$$

IAZ047>049-059>061-072>074-084-012100-
   CENTRAL IOWA

CITY           SKY/WX    TMP DP  RH WIND       PRES   REMARKS
AMES           MOSUNNY   79  63  57 W12       29.82R HX  80
ANKENY *       MOSUNNY   79  64  61 W15G21    29.82R HX  81
CHARITON *     MOSUNNY   79  66  65 W9G20     29.84S HX  81
DES MOINES     MOSUNNY   80  62  54 W14       29.82R HX  81
GRINNELL*      MOSUNNY   79  64  61 W10G17    29.82R HX  81
KNOXVILLE *    MOSUNNY   79  64  61 W15       29.81S HX  81
MARSHALLTOWN   MOSUNNY   77  63  61 W15       29.80R
PELLA *        SUNNY     79  66  65 NW12G18   29.82S HX  81
PERRY *        PTSUNNY   77  63  61 NW9G17    29.84S
$$

IAZ004>006-015-016-023>025-035-036-012100-
   NORTH CENTRAL IOWA

CITY           SKY/WX    TMP DP  RH WIND       PRES   REMARKS
ALGONA *       MOSUNNY   75  59  57 NW9       29.83S
CLARION *      MOSUNNY   77  61  57 NW13G20   29.82S
ESTHERVILLE    MOSUNNY   75  59  57 W7        29.82F
FORT DODGE *   MOSUNNY   77  59  53 NW9       29.84S
MASON CITY     SUNNY     77  59  53 NW15      29.82R
FOREST CITY *  MOSUNNY   77  61  57 W12G18    29.81S
IOWA FALLS *     N/A     77  63  61 W13       29.82R
$$

IAZ007>011-017>019-026>030-037>042-050>054-066-012100-
   NORTHEAST IOWA

CITY           SKY/WX    TMP DP  RH WIND       PRES   REMARKS
CEDAR RAPIDS   MOSUNNY   78  67  68 W15       29.77S HX  80
CHARLES CITY * MOSUNNY   75  63  64 NW12G17   29.79S
CLINTON *      MOSUNNY   82  66  57 W15G21    29.79S HX  85
DECORAH *      SUNNY     73  66  78 VRB6G17   29.76S
DUBUQUE        PTSUNNY   78  66  66 W18G24    29.76S HX  80
MONTICELLO *   PTSUNNY   79  66  65 W13       29.76S HX  81
OELWEIN *      MOSUNNY   72  66  83 W8        29.79R
WATERLOO       PTSUNNY   75  64  68 NW14      29.78R
$$

IAZ064-065-067-068-078-012100-
   EAST CENTRAL IOWA

CITY           SKY/WX    TMP DP  RH WIND       PRES   REMARKS
DAVENPORT      MOSUNNY   79  67  66 W18G24    29.79S HX  81
IOWA CITY      MOSUNNY   81  67  62 W15       29.79S HX  83
MT. PLEASANT * MOSUNNY   82  64  54 SW14G21   29.83R HX  84
MUSCATINE *    MOSUNNY   82  68  61 W12G21    29.80R HX  85
QUAD CITIES    PTSUNNY   81  66  60 SW14      29.79R HX  83
$$

IAZ062-063-075>077-085>089-095>099-012100-
   SOUTHEAST IOWA

CITY           SKY/WX    TMP DP  RH WIND       PRES   REMARKS
BURLINGTON     PTSUNNY   80  68  66 SW15G22   29.83R HX  83
FAIRFIELD *    PTSUNNY   81  66  61 W10G18    29.83R HX  83
FORT MADISON * PTSUNNY   81  68  65 SW8G16    29.85R HX  83
KEOKUK *       PTSUNNY   79  68  69 SW13G20   29.84S HX  81
OSKALOOSA *    PTSUNNY   81  66  61 W13G21    29.82S HX  83
CENTERVILLE *  MOSUNNY   79  68  69 SW13      29.87S HX  81
OTTUMWA        MOSUNNY   79  64  60 W13G22    29.80S HX  81
WASHINGTON *   PTSUNNY   81  70  69 SW13      29.81S HX  84
$$

ABBREVIATIONS USED IN REMARKS
   TC - TEMPERATURES IN CELSIUS
  WCI - WIND CHILL INDEX
   HX - HEAT INDEX
  VSB - VISIBILITY
$$




USA.gov is the U.S. government's official web portal to all federal, state and local government web resources and services.